Quincy, IL

3:16 PM CDT on September 26, 2017 (GMT -0500)
Quincy Regional-Baldwin

Weather History for KUIN - November, 2011

Change the Weather History Date:

Tuesday, November 1, 2011

  Actual Average Record
Temperature  
Mean Temperature 58 °F 49 °F  
Max Temperature 75 °F 59 °F 83 °F (1938)
Min Temperature 42 °F 40 °F 23 °F (1954)
Degree Days  
Heating Degree Days 6 16  
Month to date heating degree days 16  
Since 1 July heating degree days 440  
Cooling Degree Days 0 0  
Month to date cooling degree days 0  
Year to date cooling degree days 1093  
Growing Degree Days 8 (Base 50)    
Moisture  
Dew Point 36 °F    
Average Humidity 42    
Maximum Humidity 62    
Minimum Humidity 30    
Precipitation  
Precipitation 0.00 in 0.10 in 2.04 in (1977)
Month to date precipitation 0.10  
Year to date precipitation 32.16  
Sea Level Pressure  
Sea Level Pressure 30.03 in    
Wind  
Wind Speed 10 mph (South)    
Max Wind Speed 18 mph    
Max Gust Speed 29 mph    
Visibility 10 miles    
Events      
T = Trace of Precipitation, MM = Missing Value Source: NWS Daily Summary

Daily Weather History Graph

Daily Weather History Graph

Search for Another Location

Airport or City:

Trip Planner

Search our weather history database for the weather conditions in past years. The results will help you decide how hot, cold, wet, or windy it might be!

Date:

Astronomy

Nov. 01, 2011 Rise Set
Actual Time 7:33 AM CDT 6:02 PM CDT
Civil Twilight 7:05 AM CDT 6:30 PM CDT
Nautical Twilight 6:33 AM CDT 7:02 PM CDT
Astronomical Twilight 6:01 AM CDT 7:34 PM CDT
Moon 1:20 PM CDT (11/1) 11:45 PM CDT (11/1)
Length of Visible Light 11h 25m
Length of Day
10h 29m
Waxing Crescent, 40% of the Moon is Illuminated
Nov 1
Waxing Crescent
Nov 2
First Quarter
Nov 10
Full
Nov 18
Last Quarter
Nov 25
New

Hourly Weather History & Observations

Time (CDT) Temp. Windchill Dew Point Humidity Pressure Visibility Wind Dir Wind Speed Gust Speed Precip Events Conditions
12:54 AM 42.1 °F 37.1 °F 28.0 °F 58% 30.09 in 10.0 mi SSE 8.1 mph - N/A   Clear
1:54 AM 45.0 °F 40.1 °F 28.0 °F 52% 30.08 in 10.0 mi SSE 9.2 mph - N/A   Clear
2:54 AM 46.0 °F 41.0 °F 28.9 °F 51% 30.07 in 10.0 mi SSE 10.4 mph - N/A   Clear
3:54 AM 46.9 °F - 28.9 °F 50% 30.06 in 10.0 mi South 9.2 mph - N/A   Clear
4:54 AM 46.0 °F 42.5 °F 28.9 °F 51% 30.06 in 10.0 mi South 6.9 mph - N/A   Clear
5:54 AM 46.0 °F 42.5 °F 30.0 °F 54% 30.06 in 10.0 mi South 6.9 mph - N/A   Clear
6:54 AM 46.9 °F - 32.0 °F 56% 30.06 in 10.0 mi South 6.9 mph - N/A   Clear
7:54 AM 46.4 °F 42.4 °F 33.8 °F 62% 30.07 in 10.0 mi South 8.1 mph - N/A   Clear
8:54 AM 52.0 °F - 35.1 °F 53% 30.09 in 10.0 mi South 6.9 mph - N/A   Clear
9:54 AM 57.2 °F - 37.4 °F 48% 30.09 in 10.0 mi SSW 10.4 mph - N/A   Clear
10:54 AM 63.0 °F - 39.0 °F 41% 30.08 in 10.0 mi SSW 12.7 mph - N/A   Clear
11:54 AM 68.0 °F - 39.9 °F 36% 30.06 in 10.0 mi South 12.7 mph 19.6 mph N/A   Clear
12:54 PM 72.0 °F - 42.1 °F 34% 30.02 in 10.0 mi South 16.1 mph 21.9 mph N/A   Clear
1:54 PM 73.9 °F - 43.0 °F 33% 29.99 in 10.0 mi South 16.1 mph - N/A   Clear
2:54 PM 75.0 °F - 43.0 °F 32% 29.97 in 10.0 mi South 18.4 mph 28.8 mph N/A   Clear
3:54 PM 75.0 °F - 43.0 °F 32% 29.96 in 10.0 mi South 15.0 mph 26.5 mph N/A   Clear
4:54 PM 73.9 °F - 41.0 °F 30% 29.95 in 10.0 mi South 13.8 mph 25.3 mph N/A   Clear
5:54 PM 71.6 °F - 39.2 °F 31% 29.96 in 10.0 mi South 11.5 mph - N/A   Clear
6:54 PM 68.0 °F - 37.9 °F 33% 29.97 in 10.0 mi South 9.2 mph - N/A   Clear
7:54 PM 66.0 °F - 37.0 °F 34% 29.98 in 10.0 mi South 10.4 mph - N/A   Clear
8:54 PM 64.9 °F - 36.0 °F 34% 29.99 in 10.0 mi South 11.5 mph - N/A   Clear
9:54 PM 62.1 °F - 36.0 °F 38% 30.01 in 10.0 mi South 10.4 mph - N/A   Clear
10:54 PM 60.8 °F - 35.6 °F 39% 30.02 in 10.0 mi South 11.5 mph - N/A   Clear
11:54 PM 60.1 °F - 34.0 °F 38% 30.01 in 10.0 mi South 11.5 mph 19.6 mph N/A   Clear